Weather History for Rochester, NH

Change the Weather History Date:

Saturday, January 19, 2013

  Actual Average (KSFM) Record (KSFM)
Temperature  
Mean Temperature 29 °F -  
Max Temperature 42 °F 26 °F 42 °F (1999)
Min Temperature 16 °F 8 °F -18 °F (2003)
Degree Days  
Heating Degree Days 36    
Moisture  
Dew Point 16 °F    
Average Humidity 52    
Maximum Humidity 61    
Minimum Humidity 40    
Precipitation  
Precipitation 0.00 in - - ()
Sea Level Pressure  
Sea Level Pressure 30.04 in    
Wind  
Wind Speed 3 mph (South)    
Max Wind Speed 10 mph    
Max Gust Speed 17 mph    
Visibility 10 miles    
Events      
Averages and records for this station are not official NWS values.
T = Trace of Precipitation, MM = Missing Value Source: NWS Daily Summary

Daily Weather History Graph

Daily Weather History Graph

Search for Another Location

Airport:

Trip Planner

Search our weather history database for the weather conditions in past years. The results will help you decide how hot, cold, wet, or windy it might be!

Date:

Astronomy

Jan. 19, 2013 Rise Set
Actual Time 7:10 AM EST 4:38 PM EST
Civil Twilight 6:39 AM EST 5:10 PM EST
Nautical Twilight 6:04 AM EST 5:45 PM EST
Astronomical Twilight 5:30 AM EST 6:19 PM EST
Moon 11:05 AM EST (1/19) 12:39 AM EST (1/19)
Length of Visible Light 10h 30m
Length of Day
9h 28m
First Quarter, 57% of the Moon is Illuminated
Jan 19
First Quarter
Jan 26
Full
Feb 3
Last Quarter
Feb 10
New
Feb 17
First Quarter

Hourly Weather History & Observations

Time (EST) Temp. Windchill Dew Point Humidity Pressure Visibility Wind Dir Wind Speed Gust Speed Precip Events Conditions
12:51 AM 16.0 °F - 1.9 °F 54% 30.32 in 10.0 mi Calm Calm - N/A   Overcast
2:51 AM 18.0 °F 11.1 °F 3.9 °F 54% 30.26 in 10.0 mi South 4.6 mph - N/A   Overcast
3:51 AM 19.9 °F 14.9 °F 6.1 °F 55% 30.22 in 10.0 mi South 3.5 mph - N/A   Overcast
4:51 AM 19.9 °F - 7.0 °F 57% 30.19 in 10.0 mi Calm Calm - N/A   Overcast
5:51 AM 21.0 °F - 8.1 °F 57% 30.15 in 10.0 mi Calm Calm - N/A   Mostly Cloudy
6:51 AM 21.9 °F - 10.0 °F 60% 30.14 in 10.0 mi Calm Calm - N/A   Overcast
7:51 AM 24.1 °F 18.2 °F 12.0 °F 60% 30.12 in 10.0 mi South 4.6 mph - N/A   Overcast
8:51 AM 27.0 °F 20.5 °F 12.9 °F 56% 30.12 in 10.0 mi South 5.8 mph - N/A   Overcast
9:51 AM 30.0 °F 24.1 °F 15.1 °F 54% 30.10 in 10.0 mi South 5.8 mph - N/A   Mostly Cloudy
10:51 AM 35.1 °F 30.1 °F 17.1 °F 48% 30.06 in 10.0 mi Variable 5.8 mph - N/A   Clear
11:51 AM 39.0 °F 32.3 °F 18.0 °F 43% 30.01 in 10.0 mi SSW 10.4 mph 17.3 mph N/A   Clear
12:51 PM 39.9 °F 35.8 °F 18.0 °F 41% 29.97 in 10.0 mi Variable 5.8 mph - N/A   Clear
1:51 PM 42.1 °F 39.2 °F 19.0 °F 40% 29.95 in 10.0 mi Variable 4.6 mph - N/A   Clear
2:51 PM 42.1 °F - 19.9 °F 41% 29.95 in 10.0 mi Calm Calm - N/A   Clear
3:51 PM 42.1 °F 39.2 °F 19.9 °F 41% 29.94 in 10.0 mi Variable 4.6 mph - N/A   Clear
4:51 PM 39.9 °F - 21.0 °F 47% 29.95 in 10.0 mi Calm Calm - N/A   Clear
5:51 PM 37.9 °F - 21.0 °F 51% 29.96 in 10.0 mi Calm Calm - N/A   Partly Cloudy
6:51 PM 37.9 °F - 21.9 °F 53% 29.95 in 10.0 mi Calm Calm - N/A   Clear
7:51 PM 37.9 °F - 21.9 °F 53% 29.95 in 10.0 mi Calm Calm - N/A   Clear
9:51 PM 36.0 °F - 21.9 °F 57% 29.92 in 10.0 mi Calm Calm - N/A   Clear
10:51 PM 35.1 °F 32.2 °F 21.9 °F 59% 29.88 in 10.0 mi South 3.5 mph - N/A   Partly Cloudy
11:51 PM 35.1 °F 32.2 °F 23.0 °F 61% 29.84 in 10.0 mi South 3.5 mph - N/A   Scattered Clouds